MST,Max TemperatureF,Mean TemperatureF,Min TemperatureF,Max Dew PointF,MeanDew PointF,Min DewpointF,Max Humidity, Mean Humidity, Min Humidity, Max Sea Level PressureIn, Mean Sea Level PressureIn, Min Sea Level PressureIn, Max VisibilityMiles, Mean VisibilityMiles, Min VisibilityMiles, Max Wind SpeedMPH, Mean Wind SpeedMPH, Max Gust SpeedMPH,PrecipitationIn, CloudCover, Events, WindDirDegrees
2012-10-1,75,59,43,30,25,21,51,27,8,30.30,30.08,29.95,10,10,10,18,5,,0.00,0,,235
2012-10-2,78,56,35,29,25,21,60,25,6,30.21,29.96,29.84,10,10,10,18,5,24,0.00,0,,272
2012-10-3,78,58,39,29,25,20,46,22,6,30.03,29.93,29.85,10,10,10,18,7,24,0.00,0,,253
2012-10-4,73,58,43,33,28,21,50,25,11,30.06,29.99,29.91,10,10,10,24,11,32,0.00,0,,223
2012-10-5,66,50,35,36,27,20,60,30,12,30.09,29.96,29.86,10,10,10,16,5,24,0.00,0,,245
2012-10-6,64,50,37,32,28,23,51,26,14,30.11,29.88,29.75,10,10,10,16,8,24,0.00,0,,250
2012-10-7,72,51,30,32,24,16,55,28,7,30.00,29.90,29.82,10,10,10,12,4,20,0.00,0,,278
2012-10-8,78,56,35,31,27,21,57,32,15,30.05,29.94,29.85,10,10,10,18,6,31,0.00,0,,231
2012-10-9,70,53,36,39,32,29,65,37,17,30.14,29.95,29.86,10,10,10,15,4,23,0.00,0,,246
2012-10-10,73,54,35,37,30,26,61,34,14,30.05,29.93,29.79,10,10,10,16,5,23,0.00,0,,185
2012-10-11,64,48,33,45,36,29,90,50,25,30.09,29.92,29.84,10,10,7,20,4,29,0.35,3,Rain,158
2012-10-12,45,40,36,48,38,25,90,59,27,30.13,29.94,29.78,10,10,4,25,11,37,0.35,3,Rain-Thunderstorm,218
2012-10-13,62,47,32,37,32,30,89,58,26,30.27,30.13,30.04,10,10,10,13,4,17,0.00,1,,229
2012-10-14,63,48,32,38,31,22,89,48,16,30.27,30.17,30.07,10,10,10,13,4,,0.00,0,,278
2012-10-15,70,50,30,33,28,22,84,40,13,30.17,30.03,29.93,10,10,10,10,3,,0.00,0,,201
2012-10-16,73,52,32,30,25,19,79,32,10,30.11,29.89,29.76,10,10,10,17,5,,0.00,0,,230
2012-10-17,73,55,37,34,26,12,46,29,4,30.04,29.88,29.79,10,10,10,14,3,26,0.00,0,,277
2012-10-18,72,50,27,25,17,10,60,30,5,30.18,30.06,29.98,10,10,10,10,4,18,0.00,0,,230
2012-10-19,75,52,28,22,17,13,61,26,8,30.12,30.00,29.89,10,10,10,7,3,,0.00,0,,221
2012-10-20,68,51,34,35,26,16,59,32,15,29.97,29.84,29.71,10,10,10,20,5,28,0.00,0,,229
2012-10-21,64,50,36,39,32,24,68,40,16,29.89,29.82,29.73,10,10,10,21,8,29,0.00,1,,206
2012-10-22,64,53,42,42,30,25,81,41,16,29.96,29.86,29.78,10,10,10,22,7,28,0.00,0,,219
2012-10-23,64,52,41,40,29,24,62,34,19,30.08,29.88,29.76,10,9,2,18,6,28,0.00,0,,237
2012-10-24,62,47,32,33,24,11,68,31,8,30.01,29.80,29.70,10,10,10,26,9,39,0.00,0,,234
2012-10-25,57,39,21,17,11,3,50,26,7,30.18,30.04,29.91,10,10,10,15,6,18,0.00,0,,213
2012-10-26,48,36,25,14,6,-1,51,26,7,30.28,30.17,30.10,10,10,10,22,4,,0.00,0,,293
2012-10-27,62,40,19,9,6,1,50,27,6,30.22,30.12,30.01,10,8,2,9,3,,0.00,0,,222
2012-10-28,69,46,24,14,9,4,43,23,6,30.22,30.11,30.00,10,10,10,10,4,,0.00,0,,202
2012-10-29,69,48,26,14,9,5,42,20,4,30.25,30.15,30.05,10,9,0,9,3,18,0.00,0,,285
2012-10-30,68,46,23,15,11,8,43,22,5,30.20,30.10,30.01,10,10,10,9,3,,0.00,0,,201
2012-10-31,68,46,25,20,11,8,47,22,8,30.18,30.08,29.98,10,10,10,13,4,18,0.00,0,,200